FW9314 Weather Reports


time (UTC)temp
F
wind
direction
speed
knots
gust
knots
rain 1hr
in
rain 24hr
in
rain mn
in
humidity
%
barometer
mb
20260507180600 68 353 1.7 6.1 0.00 0.00 0.00 48 1013.3
20260507180106 67 112 1.7 6.1 0.00 0.00 0.00 49 1013.4
20260507175558 67 260 1.7 8.7 0.00 0.00 0.00 50 1013.5
20260507175058 67 239 2.6 8.7 0.00 0.00 0.00 49 1013.6
20260507174609 66 96 2.6 8.7 0.00 0.00 0.00 50 1013.8
20260507174101 66 75 1.7 7.0 0.00 0.00 0.00 51 1013.7
20260507173559 66 291 3.5 9.6 0.00 0.00 0.00 50 1013.9
20260507173103 66 298 2.6 9.6 0.00 0.00 0.00 51 1014.0
20260507172600 66 274 1.7 7.8 0.00 0.00 0.00 48 1014.1
20260507172057 65 241 2.6 7.8 0.00 0.00 0.00 51 1014.2
20260507171613 65 136 2.6 7.0 0.00 0.00 0.00 52 1014.4
20260507171058 65 101 2.6 7.0 0.00 0.00 0.00 51 1014.4
20260507170558 65 276 1.7 9.6 0.00 0.00 0.00 53 1014.7
20260507170100 65 250 2.6 9.6 0.00 0.00 0.00 52 1014.7
20260507165600 65 271 1.7 7.0 0.00 0.00 0.00 53 1014.7
20260507165059 64 316 2.6 10.4 0.00 0.00 0.00 53 1014.7
20260507164612 64 23 3.5 10.4 0.00 0.00 0.00 56 1015.0
20260507164058 64 279 2.6 7.8 0.00 0.00 0.00 53 1014.9
20260507163609 64 275 2.6 7.8 0.00 0.00 0.00 55 1014.9
20260507163059 63 253 1.7 8.7 0.00 0.00 0.00 54 1015.0
20260507162600 63 221 3.5 9.6 0.00 0.00 0.00 54 1015.1
20260507162058 63 272 2.6 10.4 0.00 0.00 0.00 56 1015.1
20260507161614 62 255 2.6 10.4 0.00 0.00 0.00 55 1015.2
20260507161106 62 291 3.5 9.6 0.00 0.00 0.00 54 1015.4
20260507160558 62 281 1.7 7.8 0.00 0.00 0.00 53 1015.4
20260507155557 62 297 2.6 7.8 0.00 0.00 0.00 56 1015.5
20260507155058 62 218 2.6 9.6 0.00 0.00 0.00 55 1015.5
20260507154556 62 290 1.7 11.3 0.00 0.00 0.00 58 1015.5
20260507154059 61 257 3.5 11.3 0.00 0.00 0.00 56 1015.6
20260507153601 61 86 2.6 9.6 0.00 0.00 0.00 57 1015.7
20260507153102 61 248 3.5 13.0 0.00 0.00 0.00 57 1015.6
20260507152558 61 228 1.7 13.0 0.00 0.00 0.00 59 1015.5
20260507152057 61 267 1.7 7.0 0.00 0.00 0.00 58 1015.6
20260507151556 60 259 1.7 7.8 0.00 0.00 0.00 59 1015.8
20260507151057 60 277 1.7 7.8 0.00 0.00 0.00 60 1015.9
20260507150558 59 290 1.7 9.6 0.00 0.00 0.00 60 1016.0
20260507150109 59 311 2.6 10.4 0.00 0.00 0.00 61 1016.1
20260507145559 59 266 2.6 10.4 0.00 0.00 0.00 60 1016.1
20260507145057 59 263 1.7 7.0 0.00 0.00 0.00 63 1016.1
20260507144600 58 246 1.7 5.2 0.00 0.00 0.00 63 1016.3
20260507144055 58 256 0.9 3.5 0.00 0.00 0.00 64 1016.4
20260507143557 57 266 0.9 5.2 0.00 0.00 0.00 66 1016.5
20260507143106 57 283 0.9 5.2 0.00 0.00 0.00 68 1016.3
20260507142558 56 283 1.7 5.2 0.00 0.00 0.00 68 1016.4
20260507142058 56 155 1.7 5.2 0.00 0.00 0.00 70 1016.5
20260507141601 55 221 1.7 4.3 0.00 0.00 0.00 70 1016.4
20260507141057 55 280 0.0 4.3 0.00 0.00 0.00 72 1016.5
20260507140558 54 250 0.9 5.2 0.00 0.00 0.00 73 1016.5
20260507140057 53 0 0.9 6.1 0.00 0.00 0.00 74 1016.6
20260507135558 53 229 0.9 6.1 0.00 0.00 0.00 74 1016.5
20260507135057 53 290 1.7 7.0 0.00 0.00 0.00 76 1016.5
20260507134606 52 274 1.7 7.0 0.00 0.00 0.00 76 1016.5
20260507134122 51 274 1.7 5.2 0.00 0.00 0.00 78 1016.6
20260507133557 51 0 1.7 5.2 0.00 0.00 0.00 80 1016.7
20260507133059 50 254 0.9 5.2 0.00 0.00 0.00 80 1016.7
20260507132554 50 311 1.7 4.3 0.00 0.00 0.00 81 1016.7
20260507132054 49 252 0.9 4.3 0.00 0.00 0.00 83 1016.7
20260507131612 49 290 0.9 4.3 0.00 0.00 0.00 84 1016.7
20260507131057 48 277 0.0 3.5 0.00 0.00 0.00 86 1016.7
20260507130557 48 299 0.0 3.5 0.00 0.00 0.00 87 1016.7
20260507130104 47 0 0.0 1.7 0.00 0.00 0.00 89 1016.7
20260507125558 46 279 0.0 2.6 0.00 0.00 0.00 91 1016.8
20260507125058 46 277 0.0 2.6 0.00 0.00 0.00 93 1016.8
20260507124600 45 0 0.0 0.9 0.00 0.00 0.00 95 1016.7
20260507124100 44 0 0.0 0.0 0.00 0.00 0.00 95 1016.7
20260507123600 44 0 0.0 0.0 0.00 0.00 0.00 96 1016.6
20260507123108 44 0 0.0 0.0 0.00 0.00 0.00 96 1016.5
20260507122559 43 0 0.0 0.0 0.00 0.00 0.00 96 1016.6
20260507122058 43 0 0.0 0.9 0.00 0.00 0.00 96 1016.7
20260507121608 42 0 0.0 0.9 0.00 0.00 0.00 96 1016.8
20260507121059 42 56 0.0 0.0 0.00 0.00 0.00 95 1016.8
20260507120558 42 0 0.0 0.0 0.00 0.00 0.00 95 1016.9
20260507120059 42 0 0.0 0.0 0.00 0.00 0.00 94 1016.6
20260507115557 42 0 0.0 0.0 0.00 0.00 0.00 94 1016.7
20260507115057 41 0 0.0 0.0 0.00 0.00 0.00 93 1016.6
20260507114602 41 0 0.0 0.0 0.00 0.00 0.00 93 1016.6
20260507114058 42 0 0.0 0.0 0.00 0.00 0.00 92 1016.7
20260507113557 42 0 0.0 0.0 0.00 0.00 0.00 92 1016.5
20260507113100 42 0 0.0 0.0 0.00 0.00 0.00 92 1016.5
20260507112558 42 0 0.0 0.0 0.00 0.00 0.00 92 1016.5
20260507112058 42 0 0.0 0.0 0.00 0.00 0.00 92 1016.5
20260507111600 42 0 0.0 0.0 0.00 0.00 0.00 92 1016.5
20260507111059 42 0 0.0 0.0 0.00 0.00 0.00 91 1016.5
20260507110559 42 0 0.0 0.0 0.00 0.00 0.00 91 1016.5
20260507110114 42 0 0.0 0.0 0.00 0.00 0.00 91 1016.7
20260507105558 43 0 0.0 0.0 0.00 0.00 0.00 91 1016.6
20260507105100 43 0 0.0 0.0 0.00 0.00 0.00 91 1016.6
20260507104557 43 0 0.0 0.0 0.00 0.00 0.00 91 1016.5
20260507104056 43 0 0.0 0.0 0.00 0.00 0.00 91 1016.7
20260507103559 43 0 0.0 0.0 0.00 0.00 0.00 91 1016.7
20260507103059 43 0 0.0 0.0 0.00 0.00 0.00 90 1016.7
20260507102558 43 0 0.0 0.0 0.00 0.00 0.00 90 1016.6
20260507102057 44 0 0.0 0.0 0.00 0.00 0.00 89 1016.5
20260507101601 44 0 0.0 0.0 0.00 0.00 0.00 89 1016.6
20260507101058 44 0 0.0 0.9 0.00 0.00 0.00 89 1016.6
20260507100556 44 0 0.0 0.9 0.00 0.00 0.00 89 1016.6
20260507100106 44 56 0.0 0.0 0.00 0.00 0.00 88 1016.7
20260507095558 44 0 0.0 0.0 0.00 0.00 0.00 87 1016.7
20260507095059 45 0 0.0 0.0 0.00 0.00 0.00 87 1016.8
20260507094613 45 0 0.0 0.0 0.00 0.00 0.00 86 1016.6
20260507094058 45 0 0.0 0.0 0.00 0.00 0.00 86 1016.6
20260507093557 45 0 0.0 0.0 0.00 0.00 0.00 86 1016.7
20260507093101 45 0 0.0 0.0 0.00 0.00 0.00 85 1016.7
20260507092558 45 0 0.0 1.7 0.00 0.00 0.00 85 1016.7
20260507092057 46 0 0.0 1.7 0.00 0.00 0.00 85 1016.6
20260507091640 46 295 0.0 1.7 0.00 0.00 0.00 84 1016.8
20260507091057 46 308 0.0 1.7 0.00 0.00 0.00 84 1016.8
20260507090556 46 307 0.0 1.7 0.00 0.00 0.00 84 1016.9
20260507090106 46 316 0.0 1.7 0.00 0.00 0.00 84 1017.0
20260507085557 46 290 0.0 1.7 0.00 0.00 0.00 84 1017.0
20260507085100 46 287 0.0 1.7 0.00 0.00 0.00 84 1017.0
20260507084559 46 302 0.0 0.9 0.00 0.00 0.00 84 1017.0
20260507084101 46 0 0.0 0.9 0.00 0.00 0.00 83 1017.1
20260507083558 46 0 0.0 1.7 0.00 0.00 0.00 83 1017.2
20260507083100 46 0 0.0 1.7 0.00 0.00 0.00 83 1017.0
20260507082559 46 277 0.0 1.7 0.00 0.00 0.00 84 1017.2
20260507082058 46 277 0.0 1.7 0.00 0.00 0.00 85 1017.2
20260507081601 45 0 0.0 0.0 0.00 0.00 0.00 86 1017.2
20260507081059 45 0 0.0 0.0 0.00 0.00 0.00 87 1017.2
20260507080559 45 0 0.0 0.0 0.00 0.00 0.00 86 1017.2
20260507080059 45 0 0.0 0.0 0.00 0.00 0.00 86 1017.2
20260507075557 45 0 0.0 0.9 0.00 0.00 0.00 87 1017.2
20260507075059 45 0 0.0 0.9 0.00 0.00 0.00 87 1017.2
20260507074600 45 0 0.0 0.0 0.00 0.00 0.00 86 1017.2
20260507074058 45 0 0.0 0.0 0.00 0.00 0.00 86 1017.3
20260507073559 45 0 0.0 0.0 0.00 0.00 0.00 86 1017.3
20260507073101 45 0 0.0 0.0 0.00 0.00 0.00 86 1017.3
20260507072559 45 0 0.0 0.0 0.00 0.00 0.00 84 1017.2
20260507072103 45 0 0.0 0.0 0.00 0.00 0.00 83 1017.3
20260507071559 46 0 0.0 0.0 0.00 0.00 0.00 82 1017.4
20260507071101 46 0 0.0 0.0 0.00 0.00 0.00 83 1017.4
20260507070602 46 0 0.0 0.0 0.00 0.00 0.00 82 1017.5
20260507070108 47 0 0.0 0.0 0.00 0.00 0.00 83 1017.4
20260507065558 47 0 0.0 0.9 0.00 0.00 0.00 83 1017.6
20260507065059 46 0 0.0 0.9 0.00 0.00 0.00 83 1017.6
20260507064600 46 0 0.0 0.0 0.00 0.00 0.00 80 1017.7
20260507064059 47 0 0.0 0.0 0.00 0.00 0.00 80 1017.7
20260507063559 47 0 0.0 0.0 0.00 0.00 0.00 80 1017.7
20260507063100 48 0 0.0 0.0 0.00 0.00 0.00 79 1017.9
20260507062557 48 0 0.0 0.0 0.00 0.00 0.00 78 1017.8
20260507062059 48 0 0.0 0.0 0.00 0.00 0.00 78 1017.8
20260507061559 49 0 0.0 0.0 0.00 0.00 0.00 77 1017.8
20260507061100 49 0 0.0 0.0 0.00 0.00 0.00 77 1017.9
20260507060558 50 0 0.0 0.0 0.00 0.00 0.00 77 1017.9
20260507060110 50 0 0.0 0.0 0.00 0.00 0.00 76 1017.9
20260507055600 50 0 0.0 0.0 0.00 0.00 0.00 76 1018.0
20260507055057 50 0 0.0 0.9 0.00 0.00 0.00 75 1018.0
20260507054600 50 0 0.0 1.7 0.00 0.00 0.00 74 1018.1
20260507054059 50 274 0.0 1.7 0.00 0.00 0.00 73 1018.2
20260507053600 50 0 0.0 0.0 0.00 0.00 0.00 73 1018.0
20260507053100 50 0 0.0 0.0 0.00 0.00 0.00 72 1018.0
20260507052559 50 0 0.0 0.9 0.00 0.00 0.00 72 1018.0
20260507052059 50 0 0.0 0.9 0.00 0.00 0.00 72 1018.0
20260507051559 50 280 0.0 0.9 0.00 0.00 0.00 72 1018.1
20260507051057 50 0 0.0 1.7 0.00 0.00 0.00 71 1018.0
20260507050558 50 280 0.9 1.7 0.00 0.00 0.00 71 1017.9
20260507050103 50 283 0.0 0.9 0.00 0.00 0.00 72 1017.9
20260507045558 50 0 0.0 0.9 0.00 0.04 0.00 72 1018.1
20260507045058 50 295 0.0 0.9 0.00 0.04 0.00 72 1018.0
20260507044602 50 285 0.0 0.9 0.00 0.04 0.00 72 1018.2
20260507044059 50 0 0.0 0.9 0.00 0.04 0.00 71 1018.1
20260507043558 50 0 0.0 0.9 0.00 0.04 0.00 71 1018.1
20260507043104 50 0 0.0 0.9 0.00 0.04 0.00 71 1018.1
20260507042559 49 0 0.0 0.9 0.00 0.04 0.00 73 1018.2
20260507042058 49 0 0.0 0.9 0.00 0.04 0.00 73 1018.2
20260507041602 49 0 0.0 0.9 0.00 0.04 0.00 73 1018.2
20260507041058 49 270 0.0 0.9 0.00 0.04 0.00 73 1018.1
20260507040559 48 0 0.0 0.9 0.00 0.04 0.00 77 1018.3
20260507040107 48 0 0.0 0.0 0.00 0.04 0.00 79 1018.3
20260507035558 48 0 0.0 0.0 0.00 0.06 0.00 79 1018.3
20260507035058 48 0 0.0 0.0 0.00 0.06 0.00 80 1018.4
20260507034601 49 0 0.0 0.0 0.00 0.06 0.00 80 1018.2
20260507034058 49 0 0.0 0.0 0.00 0.06 0.00 80 1018.0
20260507033557 48 0 0.0 0.0 0.00 0.06 0.00 80 1018.0
20260507033058 48 0 0.0 0.0 0.00 0.06 0.00 81 1018.1
20260507032559 48 0 0.0 0.0 0.00 0.06 0.00 81 1018.3
20260507032058 48 0 0.0 0.0 0.00 0.06 0.00 82 1018.2
20260507031559 48 0 0.0 0.0 0.00 0.06 0.00 81 1018.3
20260507031058 48 0 0.0 0.0 0.00 0.06 0.00 78 1018.2
20260507030557 48 0 0.0 0.0 0.00 0.06 0.00 77 1018.2
20260507030100 48 0 0.0 0.0 0.00 0.06 0.00 77 1018.2
20260507025558 48 0 0.0 0.0 0.00 0.06 0.00 76 1018.3
20260507025058 49 0 0.0 0.0 0.00 0.06 0.00 74 1018.2
20260507024609 49 0 0.0 0.0 0.00 0.06 0.00 74 1018.0
20260507024058 49 0 0.0 0.0 0.00 0.06 0.00 74 1017.8
20260507023557 49 0 0.0 0.0 0.00 0.06 0.00 74 1017.8
20260507023056 49 0 0.0 0.0 0.00 0.06 0.00 74 1017.9
20260507022559 49 0 0.0 0.0 0.00 0.06 0.00 75 1017.9
20260507022059 49 0 0.0 0.0 0.00 0.06 0.00 72 1017.7
20260507021600 50 0 0.0 0.0 0.00 0.06 0.00 71 1017.7
20260507021058 50 0 0.0 0.0 0.00 0.06 0.00 70 1017.8
20260507020558 50 0 0.0 0.0 0.00 0.06 0.00 69 1017.7
20260507020059 50 0 0.0 0.0 0.00 0.06 0.00 66 1017.6
20260507015558 50 0 0.0 0.0 0.00 0.06 0.00 57 1017.6
20260507015057 51 0 0.0 0.0 0.00 0.06 0.00 51 1017.4
20260507014601 51 0 0.0 0.0 0.00 0.06 0.00 49 1017.4
20260507014058 52 0 0.0 0.0 0.00 0.06 0.00 48 1017.3
20260507013600 53 0 0.0 0.0 0.00 0.06 0.00 47 1017.3
20260507013104 53 0 0.0 0.0 0.00 0.06 0.00 46 1017.2
20260507012558 53 0 0.0 0.0 0.00 0.06 0.00 45 1017.2
20260507012058 54 0 0.0 0.0 0.00 0.06 0.00 44 1017.1
20260507011605 54 0 0.0 0.0 0.00 0.06 0.00 43 1017.2
20260507011058 55 0 0.0 0.0 0.00 0.06 0.00 42 1017.3
20260507010559 56 0 0.0 0.0 0.00 0.06 0.00 42 1017.1
20260507010115 56 0 0.0 0.0 0.00 0.06 0.00 41 1017.2
20260507005559 57 0 0.0 0.9 0.00 0.06 0.00 40 1017.3
20260507005100 58 0 0.0 0.9 0.00 0.06 0.00 40 1017.2
20260507004609 58 0 0.0 0.9 0.00 0.06 0.00 40 1017.2
20260507004058 58 0 0.0 0.9 0.00 0.06 0.00 39 1017.2
20260507003559 59 0 0.0 0.9 0.00 0.06 0.00 38 1017.2
20260507003057 59 0 0.0 1.7 0.00 0.06 0.00 37 1017.2
20260507002558 60 0 0.0 2.6 0.00 0.06 0.00 36 1017.2
20260507002059 61 340 0.0 2.6 0.00 0.06 0.00 34 1017.1
20260507001601 62 0 0.9 2.6 0.00 0.06 0.00 34 1017.1
20260507001058 63 0 0.0 3.5 0.00 0.06 0.00 33 1017.1
20260507000602 63 0 0.0 3.5 0.00 0.06 0.00 33 1017.2
20260507000105 63 323 0.9 2.6 0.00 0.06 0.00 33 1017.2
20260506235559 63 248 0.9 4.3 0.00 0.06 0.00 32 1017.1
20260506235100 63 274 0.9 4.3 0.00 0.06 0.00 31 1017.2
20260506234614 64 256 1.7 3.5 0.00 0.06 0.00 32 1017.2
20260506234102 64 204 0.9 3.5 0.00 0.06 0.00 31 1017.2
20260506233600 65 13 0.9 2.6 0.00 0.06 0.00 33 1017.3
20260506233104 65 304 0.0 0.9 0.00 0.06 0.00 31 1017.2
20260506232558 64 0 0.0 2.6 0.00 0.06 0.00 31 1017.2
20260506232058 64 0 0.0 3.5 0.00 0.06 0.00 33 1017.3
20260506231601 64 65 0.0 3.5 0.00 0.06 0.00 32 1017.2
20260506231100 64 19 0.9 3.5 0.00 0.06 0.00 34 1017.3
20260506230558 64 305 0.9 3.5 0.00 0.06 0.00 32 1017.4
20260506230059 64 264 0.9 3.5 0.00 0.06 0.00 32 1017.4
20260506225559 64 279 0.0 2.6 0.00 0.06 0.00 32 1017.3
20260506225059 64 101 0.9 2.6 0.00 0.06 0.00 30 1017.3
20260506224559 64 82 0.0 2.6 0.00 0.06 0.00 36 1017.3
20260506224059 62 0 0.0 7.0 0.00 0.06 0.00 34 1017.3
20260506223557 62 349 2.6 7.0 0.00 0.06 0.00 34 1017.3
20260506223100 62 355 0.9 3.5 0.00 0.06 0.00 33 1017.3
20260506222600 62 36 1.7 4.3 0.00 0.06 0.00 37 1017.3
20260506222058 62 49 0.9 4.3 0.00 0.06 0.00 34 1017.3
20260506221605 62 298 1.7 4.3 0.00 0.06 0.00 33 1017.4
20260506221058 62 69 0.0 2.6 0.00 0.06 0.00 36 1017.5
20260506220601 61 310 0.0 2.6 0.00 0.06 0.00 36 1017.6
20260506220057 61 293 0.9 2.6 0.00 0.06 0.00 33 1017.5
20260506215601 61 0 0.0 2.6 0.00 0.06 0.00 35 1017.6
20260506215101 61 34 1.7 2.6 0.00 0.06 0.00 36 1017.8
20260506214607 61 338 0.0 4.3 0.00 0.06 0.00 36 1017.7
20260506214059 61 71 0.9 4.3 0.00 0.06 0.00 36 1017.7
20260506213558 61 72 0.9 4.3 0.00 0.06 0.00 33 1018.0
20260506213058 61 0 0.9 4.3 0.00 0.06 0.00 38 1018.1
20260506212559 61 218 1.7 7.0 0.00 0.06 0.00 32 1018.1
20260506212059 61 252 1.7 8.7 0.00 0.06 0.00 37 1018.1
20260506211600 61 323 1.7 8.7 0.00 0.06 0.00 37 1018.1
20260506211058 61 303 0.9 8.7 0.00 0.06 0.00 35 1018.2
20260506210559 61 320 1.7 4.3 0.00 0.06 0.00 32 1018.4
20260506210057 61 295 0.9 4.3 0.00 0.06 0.00 34 1018.7
20260506205558 61 315 1.7 6.1 0.00 0.06 0.00 34 1018.6
20260506205058 61 0 0.9 6.1 0.00 0.06 0.00 34 1018.5
20260506204616 62 67 1.7 3.5 0.00 0.06 0.00 34 1018.8
20260506204058 62 263 1.7 5.2 0.00 0.06 0.00 32 1018.7
20260506203559 62 82 0.9 5.2 0.00 0.06 0.00 33 1018.7
20260506203057 62 324 2.6 5.2 0.00 0.06 0.00 35 1019.0
20260506202559 62 316 0.9 5.2 0.00 0.06 0.00 34 1018.9
20260506202106 62 13 1.7 5.2 0.00 0.06 0.00 37 1018.9
20260506201601 62 323 1.7 4.3 0.00 0.06 0.00 36 1019.1
20260506201100 62 268 0.9 4.3 0.00 0.06 0.00 35 1019.0
20260506200558 62 298 1.7 4.3 0.00 0.06 0.00 37 1019.2
20260506200058 61 0 0.9 3.5 0.00 0.06 0.00 35 1019.1
20260506195600 61 124 0.9 4.3 0.00 0.06 0.00 36 1019.3
20260506195058 61 297 1.7 4.3 0.00 0.06 0.00 35 1019.2
20260506194559 62 253 1.7 3.5 0.00 0.06 0.00 39 1019.4
20260506194058 61 281 0.9 3.5 0.00 0.06 0.00 39 1019.4
20260506193558 61 292 0.9 3.5 0.00 0.06 0.00 37 1019.2
20260506193056 61 221 1.7 4.3 0.00 0.06 0.00 38 1019.3
20260506192559 61 0 1.7 5.2 0.00 0.06 0.00 37 1019.3
20260506192059 61 248 1.7 5.2 0.00 0.06 0.00 37 1019.2
20260506191557 60 20 0.9 5.2 0.00 0.06 0.00 42 1019.3
20260506191059 60 84 1.7 5.2 0.00 0.06 0.00 34 1019.1
20260506190558 60 290 0.9 3.5 0.00 0.06 0.00 36 1019.2
20260506190058 60 124 1.7 4.3 0.00 0.06 0.00 36 1019.2
20260506185610 60 58 1.7 6.1 0.00 0.06 0.00 35 1019.3
20260506185058 60 89 0.9 6.1 0.00 0.06 0.00 37 1019.3
20260506184600 61 59 0.9 4.3 0.00 0.06 0.00 39 1019.4
20260506184057 60 22 0.9 4.3 0.00 0.06 0.00 38 1019.5
20260506183558 60 131 0.9 4.3 0.00 0.06 0.00 35 1019.4
20260506183107 60 257 0.9 5.2 0.00 0.06 0.00 36 1019.6
20260506182558 60 82 0.9 5.2 0.00 0.06 0.00 39 1019.6
20260506182101 59 343 0.0 5.2 0.00 0.06 0.00 39 1019.7
20260506181602 59 26 2.6 5.2 0.00 0.06 0.00 37 1019.8
20260506181059 59 320 2.6 4.3 0.00 0.06 0.00 36 1019.7